Other Public Products
Issued by NWS Charleston, SC

Current Version | Previous Version | Graphics & Text | Print | Product List | Glossary Off
Versions: 1 2 3 4 5 6 7 8 9 10 11 12 13 14 15 16 17 18 19 20 21 22 23 24 25 26 27 28 29 30 31 32 33 34 35 36 37 38 39 40 41 42 43 44 45 46 47 48 49 50

995
FPUS82 KCHS 220443
OPUCHS

TEST...KCHS/KSAV Gateway Observations...TEST
National Weather Service Charleston SC
1200 AM EDT FRI SEP 22 2017

NOTE: "fair" indicates few or no clouds below 12,000 feet with no
significant weather and/or obstructions to visibility.

SCZ050-WAZ558-NCZ071-TXZ119-213-PAZ071-DCZ001-FLZ074-172-MI076-
NYZ176-178-MAZ016-IL014-TNZ027-NJZ106-GAZ044-MD014-220500-

...Gateway Observations for Charleston International...

CITY           SKY/WX    TMP DP  RH WIND       PRES   REMARKS
Chas Airport   PTCLDY    71  68  90 CALM      30.03R
Seattle        PTCLDY    56  45  66 S3        30.00R
Charlotte      PTCLDY    76  67  73 E6        30.07S
Dallas DFW     CLEAR     82  70  66 S13       29.91R
Dallas Love    PTCLDY    81  70  69 S15G22    29.93R
Philladelphia  CLOUDY    74  61  63 NE6       30.03S
Wash National  CLOUDY    76  70  82 CALM      30.05S
Baltimore      CLOUDY    67  67 100 W3        30.03S
Miami          MOCLDY    83  78  85 N3        29.92F HX  93
Detroit        PTCLDY    73  68  84 SW3       30.09R
Newark         CLOUDY    73  61  65 N10       30.01F
Laguardia      CLOUDY    73  60  63 N9        30.00F
J F K          CLOUDY    73  55  53 N13G21    30.01F
Boston Logan   CLOUDY    65  53  65 N22G31    30.02F
Ft. Lauderdale PTCLDY    82  76  81 NE7       29.92S
Chicago O`Hare MOCLDY    82  70  66 S6        30.01S
Chicago Midway CLOUDY    85  69  58 S7        30.01S
Houston Bush   MOCLDY    75  73  93 E7        29.96R
Houston Hobby  MOCLDY    79  75  87 E5        29.95R
Nashville      CLEAR     73  70  90 CALM      30.06S
Atlanta        PTCLDY    75  66  73 CALM      30.05S

$$

GAZ044-118-TXZ119-213-NCZ071-DCZ001-MDZ014-506-PAZ021-071-NJZ106-
NYZ176-178-MAZ106-OHZ011-021-055-MIZ076-KYZ091-ILZ014-INZ047-
MNZ060-ONZ431-220500-

...Gateway Observations for Savannah International...

CITY           SKY/WX    TMP DP  RH WIND       PRES   REMARKS
Savannah Arpt  PTCLDY    77  73  87 CALM      30.02S
Atlanta        PTCLDY    75  66  73 CALM      30.05S
Charlotte      PTCLDY    76  67  73 E6        30.07S
Dallas DFW     CLEAR     82  70  66 S13       29.91R
Houston Bush   MOCLDY    75  73  93 E7        29.96R
Wash National  CLOUDY    76  70  82 CALM      30.05S
Wash Dulles    MOCLDY    68  65  90 CALM      30.06S
Baltimore      CLOUDY    67  67 100 W3        30.03S
Philadelphia   CLOUDY    74  61  63 NE6       30.03S
Newark         CLOUDY    73  61  65 N10       30.01F
Laguardia      CLOUDY    73  60  63 N9        30.00F
J F K          CLOUDY    73  55  53 N13G21    30.01F
Boston         CLOUDY    65  53  65 N22G31    30.02F
Pittsburg      PTCLDY    70  63  78 CALM      30.11F
Akron          PTCLDY    71  62  73 E7        30.11F
Cleveland      PTCLDY    74  64  71 SE5       30.11S
Cincinnati     PTCLDY    75  72  90 CALM      30.08S
Columbus       MOCLDY    71  67  87 CALM      30.09R
Detroit        PTCLDY    73  68  84 SW3       30.09R
Chicago O`Hare MOCLDY    82  70  66 S6        30.01S
Minneapolis    PTCLDY    76  68  76 SE8       29.83R
Indianapolis   PTCLDY    79  67  66 SW3       30.06S
Toronto Canada PTCLDY    70  61  73 N2        30.13S

$$




USA.gov is the U.S. government's official web portal to all federal, state and local government web resources and services.